Simultaneous Nadir Overpasses (SNOs) Predictions

Prediction of SNOs between GOES-15 and NOAA-19 Satellite Orbit:

Table of predicted SNOs for the next 14.0 days since TLE Epoch: 12/5/2025
Index Date Time (GOES-15) GOES-15 Lat,Lon NOAA-19 Lat,Lon Distance(km) Time Diff (sec)
1 12/06/2025 06:11:34 0.45, 61.44 1.34, 57.48 451.31 80
2 12/07/2025 05:58:52 0.48, 61.43 0.68, 60.57 98.15 80
3 12/08/2025 05:48:51 0.50, 61.42 -0.04, 63.65 254.85 80
4 12/10/2025 18:04:39 -0.43, 61.47 -0.95, 59.23 255.31 80
5 12/11/2025 17:54:38 -0.45, 61.46 -0.24, 62.31 97.31 80
6 12/12/2025 17:41:55 -0.48, 61.45 0.42, 65.40 449.97 80
7 12/14/2025 06:10:23 0.37, 61.39 1.18, 57.90 398.30 80
8 12/15/2025 05:57:40 0.40, 61.38 0.51, 60.99 45.24 80
9 12/16/2025 05:47:38 0.42, 61.37 -0.17, 64.07 307.50 80
10 12/18/2025 18:03:30 -0.34, 61.42 -0.73, 59.63 203.73 80
